Weather History for 78866 - April, 2013

Change the Weather History Date:

Thursday, April 18, 2013

  Actual Average Record
Temperature  
Mean Temperature 80 °F -  
Max Temperature 84 °F 84 °F - ()
Min Temperature 76 °F 75 °F - ()
Cooling Degree Days 15    
Growing Degree Days 30 (Base 50)    
Moisture  
Dew Point 68 °F    
Average Humidity 67    
Maximum Humidity 78    
Minimum Humidity 53    
Precipitation  
Precipitation 0.16 in 0.11 in - ()
Sea Level Pressure  
Sea Level Pressure 30.01 in    
Wind  
Wind Speed 13 mph ()    
Max Wind Speed 23 mph    
Max Gust Speed -    
Visibility 7.5 miles    
Events Rain    
T = Trace of Precipitation, MM = Missing Value Source: Averaged Metar Reports

Daily Weather History Graph

Daily Weather History Graph

Search for Another Location

Airport or City:

Trip Planner

Search our weather history database for the weather conditions in past years. The results will help you decide how hot, cold, wet, or windy it might be!

Date:

Astronomy

Apr. 18, 2013 Rise Set
Actual Time 5:53 AM AST 6:29 PM AST
Civil Twilight 5:31 AM AST 6:52 PM AST
Nautical Twilight 5:05 AM AST 7:18 PM AST
Astronomical Twilight 4:38 AM AST 7:44 PM AST
Moon 12:10 PM AST (4/18) 12:30 AM AST (4/18)
Length of Visible Light 13h 20m
Length of Day
12h 36m
First Quarter, 51% of the Moon is Illuminated
Apr 18
First Quarter
Apr 25
Full
May 2
Last Quarter
May 9
New
May 18
First Quarter

Hourly Weather History & Observations

Time (AST) Temp. Heat Index Dew Point Humidity Pressure Visibility Wind Dir Wind Speed Gust Speed Precip Events Conditions
12:00 AM 78.8 °F - 68.0 °F 69% 30.01 in 6.2 mi East 12.7 mph - N/A   Scattered Clouds
1:00 AM 78.8 °F - 68.0 °F 69% 30.01 in 6.2 mi East 12.7 mph - N/A   Mostly Cloudy
2:00 AM 78 °F - 67 °F 62% 29.99 in 19 mi ESE 8.1 mph - -   Scattered Clouds
2:00 AM 77.0 °F - 68.0 °F 74% 29.98 in 6.2 mi ESE 8.1 mph - N/A   Partly Cloudy
3:00 AM 77.0 °F - 66.2 °F 69% 29.98 in 6.2 mi East 11.5 mph - N/A   Partly Cloudy
4:00 AM 77.0 °F - 68.0 °F 74% 29.98 in 6.2 mi East 15.0 mph - N/A   Partly Cloudy
5:00 AM 78 °F - 68 °F 64% 29.99 in 19 mi East 10.4 mph - -   Partly Cloudy
5:00 AM 77.0 °F - 68.0 °F 74% 29.98 in 6.2 mi East 10.4 mph - N/A   Scattered Clouds
6:00 AM 77.0 °F - 68.0 °F 74% 29.98 in 6.2 mi East 15.0 mph - N/A   Scattered Clouds
7:00 AM 77.0 °F - 69.8 °F 78% 30.01 in 6.2 mi East 10.4 mph - N/A Rain Light Rain Showers
8:00 AM 79 °F - 68 °F 61% 30.03 in 16 mi East 18.4 mph - - Rain Light Rain Showers
8:00 AM 80.6 °F 83.2 °F 68.0 °F 65% 30.01 in 6.2 mi East 18.4 mph - N/A   Mostly Cloudy
9:00 AM 80.6 °F 83.2 °F 68.0 °F 65% 30.04 in 6.2 mi East 19.6 mph - N/A   Scattered Clouds
10:00 AM 82.4 °F 85.4 °F 68.0 °F 62% 30.04 in 6.2 mi ENE 23.0 mph - N/A   Scattered Clouds
11:00 AM 82 °F - 68 °F 54% 30.05 in 25 mi East 23.0 mph - -   Partly Cloudy
11:00 AM 82.4 °F 85.4 °F 68.0 °F 62% 30.04 in 6.2 mi East 23.0 mph - N/A   Scattered Clouds
12:00 PM 84.2 °F 86.6 °F 66.2 °F 55% 30.04 in 6.2 mi ENE 23.0 mph - N/A   Scattered Clouds
1:00 PM 84.2 °F 87.3 °F 68.0 °F 58% 30.01 in 6.2 mi East 15.0 mph - N/A   Mostly Cloudy
2:00 PM 83 °F - 69 °F 53% 30.01 in 28 mi East 11.5 mph - -   Mostly Cloudy
2:00 PM 82.4 °F 85.4 °F 68.0 °F 62% 30.01 in 6.2 mi East 11.5 mph - N/A   Mostly Cloudy
3:00 PM 82.4 °F 85.4 °F 68.0 °F 62% 29.98 in 6.2 mi East 15.0 mph - N/A   Mostly Cloudy
4:00 PM 80.6 °F 83.2 °F 68.0 °F 65% 29.98 in 6.2 mi ESE 17.3 mph - N/A   Mostly Cloudy
5:00 PM 80 °F - 68 °F 59% 30.00 in 28 mi ESE 17.3 mph - -   Partly Cloudy
5:00 PM 80.6 °F 83.2 °F 68.0 °F 65% 29.98 in 6.2 mi East 17.3 mph - N/A   Scattered Clouds
6:00 PM 78.8 °F - 69.8 °F 74% 30.01 in 6.2 mi East 13.8 mph - N/A   Scattered Clouds
7:00 PM 78.8 °F - 69.8 °F 74% 30.01 in 6.2 mi East 21.9 mph - N/A   Mostly Cloudy
8:00 PM 78 °F - 70 °F 70% 30.03 in 25 mi East 13.8 mph - -   Partly Cloudy
8:00 PM 78.8 °F - 69.8 °F 74% 30.01 in 6.2 mi East 13.8 mph - N/A   Mostly Cloudy
9:00 PM 78.8 °F - 69.8 °F 74% 30.04 in 6.2 mi East 17.3 mph - N/A   Scattered Clouds
10:00 PM 78.8 °F - 69.8 °F 74% 30.04 in 6.2 mi East 17.3 mph - N/A   Mostly Cloudy
11:00 PM 78 °F - 69 °F 68% 30.06 in 25 mi East 18.4 mph - - Rain Light Rain Showers
11:00 PM 78.8 °F - 69.8 °F 74% 30.04 in 6.2 mi East 18.4 mph - N/A   Scattered Clouds